This is the latest recevied weather packets stored in our database for station/object OE-11372. If no packets are shown the sender has not sent any weather packets the latest 10 day(s).
| Time | Temp. | Humidity | Pressure | Rain* | Wind** | Luminosity | Snow |
|---|---|---|---|---|---|---|---|
| 1788017703 | 19.44° C | 60% | 852.8 hPa | 0 mm | - | 264 W/m² | - |
| 1788017103 | 19.44° C | 55% | 852.9 hPa | 0 mm | - | 288 W/m² | - |
| 1788016276 | 20.56° C | 60% | 853.1 hPa | 0 mm | - | 362 W/m² | - |
| 1788015903 | 18.89° C | 58% | 853.1 hPa | 0 mm | - | 214 W/m² | - |
| 1788015303 | 18.89° C | 58% | 853.2 hPa | 0 mm | - | 148 W/m² | - |
| 1788014476 | 18.89° C | 56% | 853.2 hPa | 0 mm | - | 173 W/m² | - |
| 1788014103 | 18.89° C | 56% | 853.2 hPa | 0 mm | - | 189 W/m² | - |
| 1788013502 | 19.44° C | 56% | 853.2 hPa | 0 mm | - | 313 W/m² | - |
| 1788012676 | 19.44° C | 56% | 853.3 hPa | 0 mm | - | 346 W/m² | - |
| 1788012303 | 20° C | 55% | 853.3 hPa | 0 mm | - | 478 W/m² | - |
| 1788011703 | 19.44° C | 54% | 853.3 hPa | 0 mm | - | 585 W/m² | - |
| 1788010876 | 20° C | 55% | 853.4 hPa | 0 mm | - | 593 W/m² | - |
| 1788010503 | 19.44° C | 54% | 853.4 hPa | 0 mm | - | 379 W/m² | - |
| 1788009902 | 19.44° C | 54% | 853.3 hPa | 0 mm | - | 494 W/m² | - |
| 1788009075 | 18.89° C | 56% | 853.4 hPa | 0 mm | - | 321 W/m² | - |
| 1788008703 | 18.89° C | 55% | 853.4 hPa | 0 mm | - | 313 W/m² | - |
| 1788008103 | 18.89° C | 55% | 853.4 hPa | 0 mm | - | 371 W/m² | - |
| 1788007276 | 18.89° C | 53% | 853.4 hPa | 0 mm | - | 494 W/m² | - |
| 1788006903 | 19.44° C | 53% | 853.8 hPa | 0 mm | - | 659 W/m² | - |
| 1788006303 | 18.89° C | 54% | 853.7 hPa | 0 mm | - | 626 W/m² | - |
| 1788005475 | 18.33° C | 55% | 853.8 hPa | 0 mm | - | 577 W/m² | - |
| 1788005103 | 17.78° C | 58% | 853.7 hPa | 0 mm | - | 865 W/m² | - |
| 1788004503 | 17.78° C | 59% | 853.7 hPa | 0 mm | - | 848 W/m² | - |
| 1788003676 | 17.22° C | 64% | 853.7 hPa | 0 mm | - | 626 W/m² | - |
| 1788003303 | 17.22° C | 70% | 853.8 hPa | 0 mm | - | 585 W/m² | - |
* Rain latest hour (hover to see other rain measurements)
** Current wind speed in m/s (hover to see current wind gust speed)